Regional Weather Roundup
Issued by NWS Midland/Odessa, TX

Skip options and go directly to product.
Home | Oldest Version | Previous Version | Current Version | All | Graphics & Text | Save Text | Print | Product List | Glossary On

Skip product version selection by date and time.   
470
ASUS44 KMAF 041110
RWRMAF
MIDLAND AREA WEATHER ROUNDUP
NATIONAL WEATHER SERVICE MIDLAND TX
600 AM CDT WED MAY 04 2016

...IN SOUTHWEST TEXAS AND SOUTHEAST NEW MEXICO...

CITY           SKY/WX    TMP DP  RH WIND       PRES   REMARKS
ALPINE         CLEAR     50  39  65 CALM      30.30R
ANDREWS        FAIR      47  46  97 W6        30.20S
ARTESIA        CLEAR     45  30  57 W8        30.24S
BIG SPRING     CLEAR     47  45  90 CALM      30.19S
CARLSBAD       CLEAR     47  35  63 NW6       30.21S
DRYDEN         NOT AVBL
FORT STOCKTON  CLEAR     53  43  68 S7        30.19R
GUAD PASS      CLEAR     55  35  47 NE24      30.26S
HOBBS          CLEAR     41  41 100 NW7       30.23S WCI  36
MARFA          CLEAR     52  38  58 N7        30.26R
MIDLAND AIRPK  CLEAR     52  46  79 W5        30.19S
MIDLAND INTL   CLEAR     48  43  82 NW5       30.18R
ODESSA         CLEAR     50  43  77 N7        30.19R
PECOS          CLEAR     48  39  72 NW5       30.19S
PRESIDIO       FAIR      65  43  45 MISG      30.14R
SEMINOLE       CLEAR     45  44  93 NW8       30.22R
SNYDER           N/A     53  47  82 NW8       30.16S
WINK           CLEAR     47  42  83 N7        30.19R
$$
...OTHER STATIONS IN TEXAS...

CITY           SKY/WX    TMP DP  RH WIND       PRES   REMARKS
ABILENE        CLEAR     51  50  96 S3        30.13S
AMARILLO       CLEAR     44  36  73 W7        30.20S
AUSTIN         CLEAR     52  50  93 W5        30.08R
BROWNSVILLE    PTCLDY    67  60  78 N7        30.02F
CORPUS CHRISTI PTCLDY    61  52  72 CALM      30.05S
DALLAS FTW     CLEAR     59  53  80 W7        30.05S
DEL RIO        CLEAR     58  51  78 E6        30.12S
EL PASO        CLEAR     62  34  35 E3        30.19R
HOUSTON INT    PTCLDY    55  52  89 CALM      30.04S
LUBBOCK        CLEAR     43  37  79 NW8       30.19R WCI  38
SAN ANGELO     CLEAR     52  49  89 NW5       30.13R
SAN ANTONIO    CLEAR     54  48  80 NW5       30.10R
WACO           CLEAR     51  49  92 W6        30.07S
WICHITA FALLS  NOT AVBL
$$
...OTHER LOCATIONS IN NEW MEXICO...

CITY           SKY/WX    TMP DP  RH WIND       PRES   REMARKS
ALAMAGORDO     CLEAR     54  30  40 SE5       30.21S
ALBUQUERQUE    CLEAR     53  31  42 N9        30.28S
CANNON AFB     CLEAR     45  34  64 NW10      30.24S WCI  40
CLOVIS         CLEAR     41  32  70 NW9       30.24F WCI  35
HOLLOMAN AFB   CLEAR     50  30  46 S5        30.20R
ROSWELL        CLEAR     45  32  60 W3        30.23S
RUIDOSO          N/A     41  28  60 W3        30.36F
SANTA FE       CLEAR     37  29  72 N6        30.33S WCI  32
TRUTH OR CONSE CLEAR     50  26  39 NW8       30.22S
TUCUMCARI      CLEAR     40  32  73 W7        30.23F WCI  35
$$

USA.gov is the U.S. government's official web portal to all federal, state and local government web resources and services.